User: anonymous   Login
Location: Albany
(35.0000°S, 118.0000°E)
Time: 17:09:54
(UTC-04:00)
Language:

Centaur D-1AR AC-48 - Orbit

View from above orbital plane
View from above orbital plane
View from above satellite
View from above satellite

Ground track
Ground track

The orbit data is extracted from the following two-line orbital elements,

1 10779U 78035B   16149.35973713 -.00000053 +00000-0 -11754-2 0  9996
2 10779 021.2126 202.4834 7167187 136.4954 330.6428 02.22652645310062
Epoch (UTC): 28 May 2016 08:38:01
Eccentricity: 0.7167187
inclination: 21.2126°
perigee height: 639 km
apogee height: 36150 km
right ascension of ascending node: 202.4834°
argument of perigee: 136.4954°
revolutions per day: 2.22652645
mean anomaly at epoch: 330.6428°
orbit number at epoch: 31006

The dashed part of the orbit path shows where the satellite is in the earth's shadow,  

DLR